This demonstration page uses our WeatherBlox Daily Observations layout. Learn more.

Left ArrowRight Arrow

Hourly Observations for July 17, 2022

Temp ( °F °C ) Dew Point ( °F °C ) Humidity (%) Winds ( mph kmh ) Pressure ( in mb ) Visibility ( mi km ) Precip ( " mm )
12:52 am 00:52 Cloudy 73 22.8 70 21.1 90 90 ENE 3 6 29.89 1012 10 16 0.00 0.00
1:52 am 01:52 Cloudy 73 22.8 71 21.7 94 94 NE 3 6 29.90 1012 10 16 0.00 0.00
2:00 am 02:00 Cloudy 73 22.8 71 21.7 94 94 Calm 29.89 1012 10 16 0.00 0.00
2:52 am 02:52 Cloudy 73 22.8 70 21.1 90 90 ENE 3 6 29.89 1012 10 16 0.00 0.00
3:52 am 03:52 Mostly Cloudy 72 22.2 70 21.1 94 94 Calm 29.87 1012 10 16 0.00 0.00
4:52 am 04:52 Cloudy 72 22.2 69 20.6 91 91 ENE 7 11 29.85 1011 10 16 0.00 0.00
5:52 am 05:52 Cloudy 72 22.2 69 20.6 91 91 Calm 29.88 1012 10 16 0.00 0.00
6:52 am 06:52 Mostly Cloudy 70 21.1 69 20.6 97 97 N 9 15 29.89 1012 7 11 0.00 0.00
7:27 am 07:27 Cloudy 71 21.7 70 21.1 96 96 NNW 6 9 29.90 1012 10 16 0.00 0.00
7:52 am 07:52 Cloudy 72 22.2 70 21.1 94 94 Calm 29.91 1013 10 16 0.00 0.00
8:52 am 08:52 Mostly Cloudy with Mist and Fog 74 23.3 70 21.1 88 88 E 3 6 29.92 1013 5 8 0.00 0.00
9:21 am 09:21 Mostly Cloudy with Mist and Fog 75 23.9 71 21.7 88 88 NNW 7 11 29.91 1013 6 10 0.00 0.00
9:52 am 09:52 Mostly Cloudy 76 24.4 71 21.7 85 85 N 6 9 29.93 1013 10 16 0.00 0.00
10:21 am 10:21 Mostly Cloudy 80 26.7 71 21.7 74 74 N 8 13 29.90 1012 10 16 0.00 0.00
10:52 am 10:52 Mostly Cloudy 80 26.7 69 20.6 69 69 N 10 17 29.93 1013 10 16 0.00 0.00
11:52 am 11:52 Mostly Cloudy 83 28.3 69 20.6 63 63 VRB 6 9 29.93 1013 10 16 0.00 0.00
12:43 pm 12:43 Mostly Cloudy 83 28.3 68 20 61 61 VRB 6 9 29.89 1012 10 16 0.00 0.00
12:52 pm 12:52 Mostly Cloudy 83 28.3 68 20 61 61 N 9 15 29.93 1014 10 16 0.00 0.00
1:52 pm 13:52 Mostly Cloudy 85 29.4 67 19.4 55 55 NE 8 13 29.93 1013 10 16 0.00 0.00
2:52 pm 14:52 Partly Cloudy 87 30.6 67 19.4 51 51 NNE 10 17 29.92 1013 10 16 0.00 0.00
3:52 pm 15:52 Partly Cloudy 88 31.1 68 20 52 52 N 9 15 29.92 1013 10 16 0.00 0.00
4:52 pm 16:52 Partly Cloudy 87 30.6 66 18.9 50 50 NE 6 9 29.93 1013 10 16 0.00 0.00
5:52 pm 17:52 Mostly Sunny 87 30.6 66 18.9 50 50 NNE 7 11 29.91 1013 10 16 0.00 0.00
6:52 pm 18:52 Mostly Sunny 86 30 66 18.9 51 51 VRB 5 7 29.91 1013 10 16 0.00 0.00
7:52 pm 19:52 Mostly Sunny 85 29.4 67 19.4 55 55 NE 3 6 29.91 1013 10 16 0.00 0.00
8:52 pm 20:52 Mostly Sunny 80 26.7 70 21.1 71 71 E 3 6 29.90 1013 10 16 0.00 0.00
9:52 pm 21:52 Mostly Clear 77 25 69 20.6 77 77 E 3 6 29.91 1013 10 16 0.00 0.00
10:52 pm 22:52 Clear 74 23.3 70 21.1 88 88 Calm 29.93 1014 10 16 0.00 0.00
11:52 pm 23:52 Clear 73 22.8 69 20.6 87 87 Calm 29.93 1014 10 16 0.00 0.00

Powered by AerisWeather